TimeMST,TemperatureF,Dew PointF,Humidity,Sea Level PressureIn,VisibilityMPH,Wind Direction,Wind SpeedMPH,Gust SpeedMPH,PrecipitationIn,Events,Conditions,WindDirDegrees,DateUTC
12:15 AM,26.8,15.3,62,30.23,10.0,NW,4.6,-,N/A,,Clear,310,2012-11-22 07:15:00
12:35 AM,24.3,14.4,66,30.23,10.0,NW,3.5,-,N/A,,Clear,320,2012-11-22 07:35:00
12:55 AM,24.1,14.5,67,30.22,10.0,NW,4.6,-,N/A,,Clear,320,2012-11-22 07:55:00
1:15 AM,24.8,15.4,68,30.23,10.0,NW,8.1,-,N/A,,Clear,310,2012-11-22 08:15:00
1:35 AM,27.7,16.3,62,30.22,10.0,WNW,6.9,-,N/A,,Clear,300,2012-11-22 08:35:00
1:55 AM,25.5,14.9,64,30.23,10.0,NNW,8.1,-,N/A,,Clear,340,2012-11-22 08:55:00
2:15 AM,23.4,13.6,66,30.23,10.0,NNW,6.9,-,N/A,,Clear,330,2012-11-22 09:15:00
2:35 AM,21.9,13.8,71,30.23,10.0,NW,5.8,-,N/A,,Clear,320,2012-11-22 09:35:00
2:55 AM,25.5,15.1,65,30.24,10.0,WNW,6.9,-,N/A,,Clear,300,2012-11-22 09:55:00
3:15 AM,25.9,15.6,65,30.24,10.0,WNW,8.1,-,N/A,,Clear,300,2012-11-22 10:15:00
3:35 AM,24.6,16.0,70,30.23,10.0,North,4.6,-,N/A,,Clear,360,2012-11-22 10:35:00
3:55 AM,20.7,13.1,73,30.23,10.0,NNW,4.6,-,N/A,,Clear,330,2012-11-22 10:55:00
4:15 AM,22.1,13.6,70,30.23,10.0,NW,6.9,-,N/A,,Clear,310,2012-11-22 11:15:00
4:35 AM,22.8,13.6,68,30.23,10.0,NW,8.1,-,N/A,,Clear,310,2012-11-22 11:35:00
4:55 AM,22.8,13.8,68,30.24,10.0,NW,4.6,-,N/A,,Clear,320,2012-11-22 11:55:00
5:15 AM,19.9,12.4,72,30.24,10.0,NNW,4.6,-,N/A,,Clear,340,2012-11-22 12:15:00
5:35 AM,20.1,13.1,74,30.24,10.0,NW,8.1,-,N/A,,Clear,310,2012-11-22 12:35:00
5:55 AM,20.5,13.6,75,30.24,10.0,NW,5.8,-,N/A,,Clear,310,2012-11-22 12:55:00
6:15 AM,20.5,14.0,76,30.24,10.0,NW,8.1,-,N/A,,Clear,310,2012-11-22 13:15:00
6:35 AM,21.4,13.8,73,30.26,10.0,WNW,6.9,-,N/A,,Clear,290,2012-11-22 13:35:00
6:55 AM,22.8,14.7,71,30.26,10.0,WNW,8.1,-,N/A,,Clear,300,2012-11-22 13:55:00
7:15 AM,21.9,14.0,72,30.27,10.0,NW,9.2,-,N/A,,Clear,310,2012-11-22 14:15:00
7:35 AM,23.4,14.9,70,30.28,10.0,NW,5.8,-,N/A,,Clear,320,2012-11-22 14:35:00
7:55 AM,25.7,14.9,64,30.29,10.0,NNW,5.8,-,N/A,,Clear,330,2012-11-22 14:55:00
8:15 AM,28.6,16.7,61,30.30,10.0,NW,5.8,-,N/A,,Clear,320,2012-11-22 15:15:00
8:35 AM,32.2,18.5,57,30.30,10.0,NNW,5.8,-,N/A,,Clear,330,2012-11-22 15:35:00
8:55 AM,35.2,19.6,53,30.30,10.0,NW,5.8,-,N/A,,Clear,310,2012-11-22 15:55:00
9:15 AM,40.1,21.7,48,30.30,10.0,North,5.8,-,N/A,,Clear,350,2012-11-22 16:15:00
9:35 AM,42.3,23.5,48,30.31,10.0,NNW,5.8,-,N/A,,Clear,330,2012-11-22 16:35:00
9:55 AM,43.0,23.4,46,30.31,10.0,NW,4.6,-,N/A,,Clear,310,2012-11-22 16:55:00
10:15 AM,47.1,25.5,43,30.31,10.0,NNW,3.5,-,N/A,,Clear,330,2012-11-22 17:15:00
10:35 AM,50.4,27.1,41,30.30,10.0,NNW,5.8,-,N/A,,Clear,330,2012-11-22 17:35:00
10:55 AM,52.0,27.5,39,30.30,10.0,NNW,4.6,-,N/A,,Clear,340,2012-11-22 17:55:00
11:15 AM,54.5,26.8,34,30.29,10.0,NW,3.5,-,N/A,,Clear,320,2012-11-22 18:15:00
11:35 AM,56.1,26.4,32,30.28,10.0,NW,3.5,-,N/A,,Clear,320,2012-11-22 18:35:00
11:55 AM,59.4,26.2,28,30.28,10.0,NE,4.6,-,N/A,,Clear,40,2012-11-22 18:55:00
12:15 PM,61.9,25.5,25,30.26,10.0,North,5.8,-,N/A,,Clear,10,2012-11-22 19:15:00
12:35 PM,62.6,23.7,23,30.25,10.0,North,8.1,-,N/A,,Clear,10,2012-11-22 19:35:00
12:55 PM,63.3,23.2,22,30.24,10.0,NNE,6.9,-,N/A,,Clear,20,2012-11-22 19:55:00
1:15 PM,64.2,20.7,19,30.24,10.0,North,9.2,-,N/A,,Clear,350,2012-11-22 20:15:00
1:35 PM,64.4,19.0,18,30.24,10.0,NW,10.4,17.3,N/A,,Clear,320,2012-11-22 20:35:00
1:55 PM,64.0,17.8,17,30.24,10.0,NNW,6.9,-,N/A,,Clear,330,2012-11-22 20:55:00
2:15 PM,65.3,17.2,16,30.24,10.0,NW,8.1,-,N/A,,Clear,320,2012-11-22 21:15:00
2:35 PM,65.8,14.7,14,30.24,10.0,NNW,13.8,17.3,N/A,,Clear,340,2012-11-22 21:35:00
2:55 PM,65.5,12.7,13,30.24,10.0,NNW,15.0,19.6,N/A,,Clear,340,2012-11-22 21:55:00
3:15 PM,64.9,12.0,13,30.24,10.0,NNW,13.8,19.6,N/A,,Clear,340,2012-11-22 22:15:00
3:35 PM,64.9,12.9,13,30.24,10.0,North,15.0,19.6,N/A,,Clear,360,2012-11-22 22:35:00
3:55 PM,63.9,13.1,14,30.25,10.0,North,12.7,17.3,N/A,,Clear,350,2012-11-22 22:55:00
4:15 PM,62.4,13.5,15,30.26,10.0,North,9.2,-,N/A,,Clear,350,2012-11-22 23:15:00
4:35 PM,61.0,15.1,17,30.26,10.0,NNW,6.9,-,N/A,,Clear,340,2012-11-22 23:35:00
4:55 PM,58.8,20.3,23,30.28,10.0,North,6.9,-,N/A,,Clear,10,2012-11-22 23:55:00
5:15 PM,57.2,20.3,24,30.28,10.0,North,6.9,-,N/A,,Clear,10,2012-11-23 00:15:00
5:35 PM,49.5,19.4,31,30.29,10.0,NW,8.1,-,N/A,,Clear,310,2012-11-23 00:35:00
5:55 PM,49.8,19.4,30,30.31,10.0,WNW,9.2,-,N/A,,Clear,300,2012-11-23 00:55:00
6:55 PM,43.9,19.2,37,30.33,10.0,WNW,9.2,-,N/A,,Clear,300,2012-11-23 01:55:00
7:15 PM,46.6,19.6,34,30.33,10.0,West,9.2,-,N/A,,Clear,280,2012-11-23 02:15:00
7:35 PM,46.2,19.9,35,30.34,10.0,West,10.4,-,N/A,,Clear,270,2012-11-23 02:35:00
7:55 PM,41.9,19.8,41,30.35,10.0,North,3.5,-,N/A,,Clear,350,2012-11-23 02:55:00
8:15 PM,41.7,20.1,42,30.35,10.0,North,4.6,-,N/A,,Clear,350,2012-11-23 03:15:00
8:35 PM,39.7,19.4,44,30.36,10.0,North,4.6,-,N/A,,Clear,350,2012-11-23 03:35:00
8:55 PM,34.3,18.3,52,30.37,10.0,North,5.8,-,N/A,,Clear,360,2012-11-23 03:55:00
9:15 PM,34.9,18.3,51,30.37,10.0,NNW,6.9,-,N/A,,Clear,330,2012-11-23 04:15:00
9:35 PM,31.6,17.4,56,30.38,10.0,NNW,5.8,-,N/A,,Clear,340,2012-11-23 04:35:00
9:55 PM,33.1,18.7,56,30.38,10.0,WNW,4.6,-,N/A,,Clear,290,2012-11-23 04:55:00
10:15 PM,33.4,18.1,54,30.40,10.0,NW,5.8,-,N/A,,Clear,310,2012-11-23 05:15:00
10:35 PM,33.3,18.5,55,30.40,10.0,WNW,4.6,-,N/A,,Clear,290,2012-11-23 05:35:00
10:55 PM,32.2,18.0,56,30.40,10.0,WNW,4.6,-,N/A,,Clear,300,2012-11-23 05:55:00
11:15 PM,30.2,17.4,59,30.41,10.0,WNW,4.6,-,N/A,,Clear,300,2012-11-23 06:15:00
11:35 PM,32.0,18.1,57,30.41,10.0,WNW,8.1,-,N/A,,Clear,300,2012-11-23 06:35:00
11:55 PM,29.7,17.6,61,30.41,10.0,NW,5.8,-,N/A,,Clear,320,2012-11-23 06:55:00